TimeEST,TemperatureF,Dew PointF,Humidity,Sea Level PressureIn,VisibilityMPH,Wind Direction,Wind SpeedMPH,Gust SpeedMPH,PrecipitationIn,Events,Conditions,WindDirDegrees,DateUTC
12:53 AM,27.0,12.0,53,30.01,10.0,NW,10.4,-,N/A,,Clear,320,2013-01-02 05:53:00
1:53 AM,26.1,12.0,55,30.02,10.0,NNW,8.1,-,N/A,,Clear,340,2013-01-02 06:53:00
2:53 AM,25.0,10.9,55,30.03,10.0,North,10.4,-,N/A,,Clear,350,2013-01-02 07:53:00
3:53 AM,25.0,10.9,55,30.02,10.0,North,5.8,-,N/A,,Clear,350,2013-01-02 08:53:00
4:53 AM,24.1,10.0,55,30.02,10.0,Calm,Calm,-,N/A,,Clear,0,2013-01-02 09:53:00
5:53 AM,24.1,10.0,55,30.03,10.0,Calm,Calm,-,N/A,,Clear,0,2013-01-02 10:53:00
6:53 AM,23.0,10.9,60,30.04,10.0,Calm,Calm,-,N/A,,Clear,0,2013-01-02 11:53:00
7:53 AM,21.9,14.0,72,30.05,10.0,Calm,Calm,-,N/A,,Clear,0,2013-01-02 12:53:00
8:53 AM,25.0,12.9,60,30.08,10.0,Calm,Calm,-,N/A,,Clear,0,2013-01-02 13:53:00
9:53 AM,26.6,12.2,55,30.08,10.0,WNW,3.5,-,N/A,,Partly Cloudy,300,2013-01-02 14:53:00
10:54 AM,28.9,12.9,51,30.09,10.0,West,9.2,-,N/A,,Clear,280,2013-01-02 15:54:00
11:53 AM,30.0,14.0,51,30.06,10.0,WNW,8.1,-,N/A,,Scattered Clouds,300,2013-01-02 16:53:00
12:53 PM,32.0,14.0,48,30.04,10.0,NW,10.4,-,N/A,,Scattered Clouds,310,2013-01-02 17:53:00
1:53 PM,33.1,12.9,43,30.06,10.0,NW,10.4,-,N/A,,Partly Cloudy,320,2013-01-02 18:53:00
2:53 PM,33.1,12.9,43,30.06,10.0,WNW,10.4,20.7,N/A,,Clear,300,2013-01-02 19:53:00
3:53 PM,34.0,12.9,42,30.07,10.0,NW,10.4,16.1,N/A,,Clear,310,2013-01-02 20:53:00
4:53 PM,32.0,12.0,44,30.09,10.0,NW,12.7,17.3,N/A,,Clear,320,2013-01-02 21:53:00
5:53 PM,30.0,12.9,49,30.12,10.0,Calm,Calm,-,N/A,,Clear,0,2013-01-02 22:53:00
6:53 PM,28.9,15.1,56,30.13,10.0,Calm,Calm,-,N/A,,Clear,0,2013-01-02 23:53:00
7:53 PM,27.0,16.0,63,30.14,10.0,Calm,Calm,-,N/A,,Clear,0,2013-01-03 00:53:00
8:53 PM,26.1,16.0,66,30.14,10.0,Calm,Calm,-,N/A,,Clear,0,2013-01-03 01:53:00
9:53 PM,26.1,16.0,66,30.16,10.0,Calm,Calm,-,N/A,,Clear,0,2013-01-03 02:53:00
10:53 PM,27.0,16.0,63,30.18,10.0,Calm,Calm,-,N/A,,Clear,0,2013-01-03 03:53:00
11:53 PM,27.0,15.1,61,30.19,10.0,WNW,3.5,-,N/A,,Clear,300,2013-01-03 04:53:00